Погода в Кандалакше

Россия / Мурманская область     67°09′04″N   32°24′46″E
темп.,
°C
ветер,
м/с
пор.,
м/с
влажн.,
%
обл.,
%
осадки,
мм/ч
давл.,
гПа
погр.,
м
17 мая, вт
вт1700:00+2ссв51079100 0.0 1017671
03:00+2с398295 0.0 1018700
06:00+2с4983100 0.0 1019779
09:00+2ссз4671100 0.1 1019994
12:00+4с465496 0.1 10201477
15:00+5ссз4550100 0.1 10191694
18:00+5ссз355082 0.0 10181452
21:00+3сз2560100 0.0 1016298
18 мая, ср
ср1800:00+1сз259297 0.1 1016376
03:00−1з249169 0.1 1014100
06:00+1сз368251 0.0 1013631
09:00+3сз576356 0.0 10131149
12:00+4ссз5853100 0.2 10131741
15:00+5ссз684896 0.3 10131959
18:00+4ссз5957100 0.2 10141573
21:00+2с5107175 0.4 10151336
19 мая, чт
чт1900:000ссз4117618 0.0 10161002
03:00−1ссз511766 0.0 1017832
06:000ссз497266 0.0 1018943
09:00+2с575989 0.0 10201213
12:00+5с465078 0.0 10201386
15:00+6с344689 0.0 10201518
18:00+6с3448100 0.0 10211405
21:00+3св2462100 0.0 1021271
20 мая, пт
пт2000:00+1св117293 0.0 102112
03:000св117693 0.0 102210
06:00+2вюв116882 0.0 1022199
09:00+5ю215941 0.0 1022947
12:00+6ю215589 0.0 10211180
15:00+7ю224881 0.0 10211413
18:00+7ю214830 0.0 10201152
21:00+5ю236186 0.0 1020164
21 мая, сб
сб2100:00+2ююв116891 0.0 101917
03:00+2ююв2267100 0.0 101936
06:00+4ююв2572100 0.0 1018304
09:00+4ю3668100 0.0 1017569
12:00+6ю466187 0.0 1016870
15:00+8ю355594 0.1 1014853
18:00+9ю3553100 0.0 1013563
21:00+7ю256299 0.0 1012265